Regional Weather Roundup
Issued by NWS

Home | Current Version | Previous Version | Text Only | Print | Product List | Glossary On
Versions: 1 2 3 4 5 6 7 8 9 10 11 12 13 14 15 16 17 18 19 20 21 22 23 24 25 26 27 28 29 30 31 32 33 34 35 36 37 38 39 40 41 42 43 44 45 46 47 48 49 50
000
ASUS44 KBMX 021110
RWRAL

ALABAMA REGIONAL WEATHER ROUNDUP
NATIONAL WEATHER SERVICE BIRMINGHAM AL
600 AM CDT MON MAY 02 2016

NOTE: "FAIR" INDICATES FEW OR NO CLOUDS BELOW 12,000 FEET
WITH NO SIGNIFICANT WEATHER AND/OR OBSTRUCTIONS TO VISIBILITY.

THE REMARK "TC" DENOTES TEMPERATURE IN DEGREES CELSIUS.

ALZ001>011-014-016>018-020-021200-
NORTH ALABAMA

CITY           SKY/WX    TMP DP  RH WIND       PRES   REMARKS
MUSCLE SHOALS  NOT AVBL
HUNTSVILLE     CLOUDY    62  59  90 E3        29.99R
DECATUR        CLOUDY    61  61 100 CALM      30.00R
HALEYVILLE     CLOUDY    62  62 100 CALM      30.01S
GADSDEN        PTCLDY    62  62 100 E3        30.02S
$$

ALZ012-013-022-023-030>036-040>044-021200-
WEST CENTRAL ALABAMA

CITY           SKY/WX    TMP DP  RH WIND       PRES   REMARKS
TUSCALOOSA     PTCLDY    61  61 100 NE3       29.97F FOG
$$

ALZ015-024>027-033>036-040>044-021200-
CENTRAL ALABAMA

CITY           SKY/WX    TMP DP  RH WIND       PRES   REMARKS
BIRMINGHAM     PTCLDY    63  62  97 CALM      30.02R
MONTGOMERY     PTCLDY    64  62  93 CALM      29.99S
SHELBY CO ARPT CLOUDY    63  62  97 CALM      30.00S
MAXWELL AFB    FOG       64  64 100 N3        29.98R VSB 1/2
GREENVILLE     CLOUDY    66  63  90 CALM      29.99R FOG
$$

ALZ019-021-028-029-037-038-045>048-021200-
EAST CENTRAL ALABAMA

CITY           SKY/WX    TMP DP  RH WIND       PRES   REMARKS
ANNISTON       CLEAR     62  59  90 NE3       30.02S
ALEXANDER CITY CLEAR     61  61 100 CALM      30.01S
AUBURN         NOT AVBL
$$

ALZ051>064-021200-
SOUTHWEST ALABAMA

CITY           SKY/WX    TMP DP  RH WIND       PRES   REMARKS
MOBILE         MOCLDY    67  67 100 CALM      29.96R FOG
BROOKLEY FIELD PTCLDY    73  71  93 E7        29.96S
EVERGREEN      FOG       66  65  96 CALM      29.98R VSB 1/2
$$

ALZ049-050-065>069-021200-
SOUTHEAST ALABAMA

CITY           SKY/WX    TMP DP  RH WIND       PRES   REMARKS
DOTHAN         CLOUDY    66  65  96 SE6       30.03R
OZARK          FOG       70  70 100 S5        29.98F VSB 3/4
TROY           CLOUDY    67  65  93 CALM      30.01R
EUFAULA        FAIR      65  62  90 N3        29.99R
$$



USA.gov is the U.S. government's official web portal to all federal, state and local government web resources and services.